Wind_Speed
20 22 24 26 26 27 26 23 19 18 16 16 17 19 18 15 13 12 12 11 13 13 13 14 15 13 12 10 9 6 5 4
22 23 25 27 27 27 28 26 21 18 19 18 18 19 18 18 15 13 13 14 14 14 14 15 15 14 12 11 9 8 6 4
22 25 26 27 28 29 28 27 23 22 20 19 18 19 19 18 16 15 15 15 15 16 15 17 16 14 13 12 10 8 6 4
18 24 27 28 30 30 30 29 25 23 21 19 17 16 15 19 17 15 19 20 19 17 18 19 18 16 15 13 11 10 8 5
17 22 26 28 29 28 29 28 27 25 23 22 23 22 21 20 19 18 17 17 18 17 18 22 20 17 16 14 12 11 8 6
20 23 27 29 28 29 29 28 27 26 26 25 22 22 19 17 19 18 19 18 17 17 19 21 22 19 17 17 16 13 10 7
19 25 24 26 27 28 29 29 28 27 26 26 26 24 24 21 20 20 19 17 17 19 19 20 20 19 20 19 17 15 13 13
20 19 25 26 27 28 27 28 29 27 28 27 28 27 24 24 22 22 20 20 25 28 26 23 22 21 20 19 19 14 12 12
21 20 24 26 27 26 26 28 27 28 28 28 27 26 23 25 24 24 25 27 32 29 29 26 22 22 25 24 17 11 9 12
16 18 25 24 23 26 27 25 24 25 25 23 22 21 24 23 22 24 29 28 30 26 26 27 27 23 24 22 14 13 12 13
7 9 15 19 20 20 21 22 23 23 22 22 21 21 21 22 20 23 29 27 26 24 30 29 24 26 25 17 13 13 12 12
5 6 8 11 13 16 17 18 19 19 19 18 17 17 18 19 19 19 20 21 23 28 26 24 26 29 24 16 16 11 12 15
4 6 9 11 12 12 13 14 15 15 14 13 13 12 12 13 14 14 18 19 20 20 24 29 25 28 20 16 12 12 17 17
4 6 7 9 10 10 9 9 9 9 8 8 7 6 6 8 10 11 12 14 16 19 23 16 19 20 17 16 18 21 24 18
5 5 5 7 8 8 8 7 6 6 5 5 5 5 5 6 6 7 7 8 11 15 16 17 18 13 11 12 18 22 16 18
7 7 6 7 7 8 7 8 7 7 7 7 7 7 7 6 7 7 9 10 12 14 17 15 12 10 13 18 20 18 17 19
7 7 7 8 8 10 11 11 10 11 11 10 11 11 11 11 12 13 13 15 15 14 13 11 9 14 16 17 16 18 17 20
11 11 11 13 13 13 14 13 13 14 15 14 13 14 14 15 15 16 16 16 16 11 7 8 12 14 14 15 15 16 19 20
10 10 13 14 15 17 17 17 17 16 16 15 15 16 17 17 16 15 12 11 5 3 8 10 10 11 11 13 15 16 18 21
Wind_Direction
173 179 184 181 181 185 189 189 192 191 190 189 194 197 198 202 201 201 199 197 189 182 184 181 177 183 183 181 179 160 166 184
179 182 180 183 185 188 191 194 200 193 195 196 197 200 201 205 206 205 200 197 190 192 191 186 189 189 190 180 166 159 170 192
185 191 194 195 198 200 200 203 205 205 203 202 204 205 209 211 211 212 203 201 196 200 200 195 189 193 185 179 177 181 191 193
195 196 199 200 204 204 206 207 210 209 207 204 203 203 209 210 213 214 211 212 206 204 204 198 190 191 191 189 189 197 202 197
200 202 206 206 207 206 208 208 209 209 207 208 206 204 208 214 217 217 210 210 210 206 205 203 194 194 194 190 191 199 194 212
208 204 205 207 206 207 208 208 207 208 208 213 212 218 222 221 220 216 209 210 208 208 204 203 195 191 196 193 189 192 202 223
216 212 207 209 206 205 206 207 208 208 210 215 217 219 220 219 214 212 210 211 209 209 205 205 202 200 198 196 195 197 201 216
219 212 206 207 206 204 205 206 210 210 212 216 220 222 222 220 220 219 210 209 208 212 206 204 205 206 199 198 200 204 230 212
220 213 215 210 209 206 207 207 208 208 211 216 219 222 219 224 225 222 215 214 219 216 205 205 205 203 197 203 205 228 215 224
219 225 215 213 212 210 211 212 211 212 213 219 221 218 218 223 225 220 226 227 221 212 213 204 203 201 197 203 221 212 202 226
214 222 220 219 213 211 207 208 210 213 215 217 221 222 222 225 220 219 226 225 217 216 219 213 200 199 198 208 215 198 211 220
174 182 191 198 202 202 199 202 206 209 213 217 222 224 226 226 221 225 224 220 215 220 214 203 196 200 196 205 193 209 228 234
137 148 152 163 178 188 193 200 206 208 208 211 218 227 227 228 230 227 219 220 228 218 206 196 195 198 200 195 191 214 246 251
144 140 147 150 158 169 180 189 194 197 198 199 206 203 205 217 225 233 241 233 229 209 201 195 192 192 193 201 204 241 260 253
184 162 151 146 151 158 162 158 156 157 156 158 150 159 179 202 213 215 205 194 196 196 188 188 188 194 188 207 230 251 253 257
183 178 154 134 129 125 122 105 113 117 113 111 118 123 125 130 136 137 142 141 143 155 168 172 179 178 224 243 255 246 256 265
135 124 114 100 101 100 98 97 96 104 108 106 107 107 114 118 118 121 122 129 129 137 133 144 199 237 258 269 261 271 268 269
116 106 97 94 94 102 99 97 98 98 100 102 106 110 111 112 116 118 117 118 125 135 174 227 262 271 270 275 270 271 273 272
116 109 102 98 100 101 104 101 98 100 102 105 111 114 115 116 116 117 117 127 146 249 282 281 270 273 274 276 280 279 274 272
Height
803 809 812 816 821 826 830 834 836 839 841 844 847 850 851 852 854 856 857 858 861 863 865 866 868 870 873 874 876 876 878 880
802 806 810 814 818 823 826 830 833 835 838 841 842 845 847 850 852 853 854 856 857 861 862 863 865 867 871 872 873 875 877 878
796 802 805 809 813 817 821 824 829 832 834 837 839 842 845 847 849 851 852 854 854 857 859 861 862 866 868 870 871 873 875 875
788 794 799 803 807 811 816 820 824 828 831 834 837 839 841 844 845 846 846 849 850 853 855 856 859 862 865 867 868 870 871 873
779 786 792 797 802 807 811 815 819 823 827 830 831 832 834 837 840 843 844 846 848 850 850 853 855 859 861 863 866 869 869 869
768 774 781 788 795 799 805 809 812 817 821 824 827 828 829 832 837 839 841 843 843 845 848 850 853 855 857 859 862 864 864 865
760 766 774 780 786 792 798 802 806 810 815 818 820 822 824 827 832 834 835 837 838 842 845 848 850 852 854 856 857 858 858 859
753 758 764 771 777 784 790 794 798 803 807 810 812 815 819 822 825 827 829 831 832 835 840 843 846 848 850 853 853 855 856 856
744 751 756 762 770 778 783 786 790 795 799 802 807 811 814 816 818 821 822 822 825 830 834 837 840 844 845 847 849 852 856 859
738 743 749 757 764 770 775 780 785 790 794 798 802 806 809 811 814 816 816 819 822 825 829 831 834 838 840 843 847 848 852 857
739 742 746 752 759 766 772 776 780 786 790 794 797 800 802 805 807 808 810 813 817 820 823 825 830 833 837 841 845 848 851 853
739 742 747 752 757 762 767 772 776 781 785 789 792 794 796 799 801 804 806 808 811 813 816 822 825 827 833 837 839 847 853 850
739 742 746 750 755 760 764 768 772 776 780 784 787 790 793 795 798 800 802 805 807 811 814 815 819 824 828 835 841 844 847 846
738 742 744 748 753 758 762 767 771 774 777 781 784 787 790 793 795 797 799 802 804 808 812 817 821 825 829 830 836 841 842 842
738 742 745 750 754 758 762 766 770 774 777 780 783 785 788 791 792 795 797 800 804 809 813 817 821 824 829 832 834 836 837 837
739 741 744 749 754 758 761 767 769 772 775 779 783 786 788 791 794 797 800 802 806 809 813 817 821 826 829 829 830 831 831 830
742 745 748 752 755 758 764 766 770 773 778 782 784 787 790 794 796 799 802 806 809 812 816 820 822 824 824 826 827 827 827 825
746 750 753 756 759 761 765 769 773 776 780 784 787 790 793 797 800 803 806 809 812 815 817 819 820 821 822 823 824 824 823 821
751 755 758 761 763 766 769 772 776 780 784 788 791 794 797 801 804 807 810 811 814 815 816 817 818 819 820 819 820 819 817 815